Location: Unspecified
(0.0000°N, 0.0000°E)
Time: 07:34:14
(UTC+00:00)

Vanguard 2 Rocket - Pass Details

Date: 14 October 2022
Orbit: 555 x 3321 km, 32.9° (Epoch: 06 December)

Event Time Altitude Azimuth Distance (km) Brightness Sun altitude
Rises 23:50:55 0° 319° (NW) 6,480 - -81.9°
Reaches altitude 10° 23:59:12 10° 342° (NNW) 4,766 - -81.3°
Maximum altitude 00:04:33 13° 7° (N) 3,948 - -80.7°
Drops below altitude 10° 00:08:55 10° 34° (NNE) 3,737 - -80.1°
Sets 00:13:41 0° 60° (ENE) 4,157 - -79.4°
